EA1M Weather Reports


time (UTC)temp
F
wind
direction
speed
knots
gust
knots
rain 1hr
in
rain 24hr
in
rain mn
in
humidity
%
barometer
mb
20260508122102 63 165 5.2 9.6 0.00 0.00 0.00 56 1009.4
20260508121021 63 164 4.3 11.3 0.00 0.00 0.00 56 1009.5
20260508120045 63 174 6.1 12.2 0.00 0.00 0.00 55 1009.5
20260508115109 63 175 4.3 8.7 0.00 0.00 0.00 60 1009.4
20260508114030 62 158 4.3 7.8 0.00 0.00 0.00 62 1009.4
20260508113055 62 158 3.5 7.0 0.00 0.00 0.00 65 1009.4
20260508112138 61 142 3.5 7.8 0.00 0.00 0.00 67 1009.7
20260508111118 62 159 3.5 7.0 0.00 0.00 0.00 67 1009.8
20260508110121 61 165 5.2 9.6 0.00 0.00 0.00 67 1009.9
20260508105041 61 133 4.3 7.8 0.00 0.00 0.00 67 1009.9
20260508104046 61 158 7.0 11.3 0.00 0.00 0.00 68 1009.9
20260508103110 60 140 4.3 11.3 0.00 0.00 0.00 71 1009.9
20260508102030 60 176 6.1 11.3 0.00 0.00 0.00 73 1009.9
20260508101054 60 148 4.3 7.0 0.00 0.00 0.00 74 1009.8
20260508100118 59 141 4.3 8.7 0.00 0.00 0.00 76 1009.8
20260508095040 59 114 5.2 7.8 0.00 0.00 0.00 75 1009.8
20260508094101 59 115 3.5 7.0 0.00 0.00 0.00 77 1009.7
20260508093042 59 145 4.3 7.8 0.00 0.00 0.00 78 1009.6
20260508092105 58 102 3.5 7.8 0.00 0.00 0.00 78 1009.6
20260508091129 58 133 3.5 7.0 0.00 0.00 0.00 78 1009.5
20260508090029 57 129 3.5 7.0 0.00 0.00 0.00 79 1009.7
20260508085054 57 120 2.6 6.1 0.00 0.00 0.00 80 1009.7
20260508084118 57 113 2.6 5.2 0.00 0.00 0.00 81 1009.5
20260508083038 56 73 2.6 6.1 0.00 0.00 0.00 82 1009.5
20260508082101 56 103 3.5 8.7 0.00 0.00 0.00 82 1009.6
20260508081021 56 95 4.3 7.8 0.00 0.00 0.00 82 1009.8
20260508080046 56 112 3.5 7.0 0.00 0.00 0.00 83 1009.6
20260508075109 56 98 3.5 7.0 0.00 0.00 0.00 84 1009.5
20260508074029 55 91 4.3 7.8 0.00 0.00 0.00 84 1009.5
20260508073053 55 100 5.2 8.7 0.00 0.00 0.00 84 1009.5
20260508072117 55 111 3.5 7.0 0.00 0.00 0.00 85 1009.4
20260508071037 55 105 3.5 7.0 0.00 0.00 0.00 85 1009.5
20260508065022 54 86 3.5 7.8 0.00 0.00 0.00 85 1009.3
20260508064046 54 127 3.5 7.8 0.00 0.00 0.00 85 1009.2
20260508063130 54 103 2.6 5.2 0.00 0.00 0.00 85 1009.1
20260508062029 54 116 2.6 6.1 0.00 0.00 0.00 85 1008.9
20260508061114 54 92 2.6 3.5 0.00 0.00 0.00 85 1008.6
20260508060020 54 85 1.7 3.5 0.00 0.00 0.00 85 1008.7
20260508055038 54 74 1.7 5.2 0.00 0.00 0.00 85 1008.7
20260508054102 54 68 0.0 1.7 0.00 0.00 0.00 85 1008.7
20260508053022 54 94 0.9 1.7 0.00 0.00 0.00 85 1008.7
20260508052046 54 96 1.7 3.5 0.00 0.00 0.00 85 1008.7
20260508051109 54 91 2.6 5.2 0.00 0.00 0.00 86 1008.7
20260508050030 54 87 1.7 5.2 0.00 0.00 0.00 87 1008.7
20260508045054 54 71 0.9 1.7 0.00 0.00 0.00 87 1008.7
20260508044138 54 78 0.9 1.7 0.00 0.00 0.00 87 1008.7
20260508043038 54 87 1.7 2.6 0.00 0.00 0.00 86 1008.8
20260508042101 54 82 0.9 3.5 0.00 0.00 0.00 86 1008.7
20260508041042 54 113 1.7 2.6 0.00 0.00 0.00 86 1008.7
20260508040046 54 97 1.7 3.5 0.00 0.00 0.00 85 1008.7
20260508035129 54 89 1.7 3.5 0.00 0.00 0.00 85 1008.9
20260508034049 54 79 2.6 3.5 0.00 0.00 0.00 86 1008.9
20260508033053 53 82 1.7 3.5 0.00 0.00 0.00 87 1009.1
20260508032117 53 69 0.9 1.7 0.00 0.00 0.00 87 1009.1
20260508031037 54 96 1.7 2.6 0.00 0.00 0.00 86 1009.0
20260508025023 54 72 0.9 2.6 0.00 0.00 0.00 85 1009.0
20260508024046 54 85 1.7 3.5 0.00 0.00 0.00 86 1008.9
20260508023110 53 85 1.7 2.6 0.00 0.00 0.00 88 1008.9
20260508022030 53 62 0.9 1.7 0.00 0.00 0.00 89 1009.1
20260508021054 53 0.0 0.0 0.00 0.00 0.00 89 1009.1
20260508020137 53 0.0 0.0 0.00 0.00 0.00 89 1009.0
20260508015038 53 0.0 0.0 0.00 0.00 0.00 89 1009.3
20260508014102 53 67 0.9 1.7 0.00 0.00 0.00 90 1009.4
20260508013043 53 58 0.0 0.9 0.00 0.00 0.00 90 1009.5
20260508012046 53 74 0.9 1.7 0.00 0.00 0.00 90 1009.5
20260508011109 53 70 0.0 0.9 0.00 0.00 0.00 90 1009.5
20260508010030 53 82 0.9 1.7 0.00 0.00 0.00 90 1009.8
20260508005054 53 77 0.9 2.6 0.00 0.00 0.00 90 1009.8
20260508004118 53 119 1.7 3.5 0.00 0.00 0.00 90 1009.8
20260508003038 53 117 1.7 3.5 0.00 0.00 0.00 90 1009.9
20260508002101 53 113 1.7 3.5 0.00 0.00 0.00 91 1010.0
20260508001041 53 89 1.7 2.6 0.00 0.00 0.00 91 1010.0
20260508000046 53 97 1.7 3.5 0.00 0.00 0.00 91 1010.1
20260507235110 53 103 1.7 2.6 0.00 0.00 0.00 92 1010.0
20260507234030 53 99 1.7 1.7 0.00 0.00 0.00 91 1010.2
20260507233054 54 93 1.7 2.6 0.00 0.00 0.00 91 1010.3
20260507232118 54 78 0.9 1.7 0.00 0.00 0.00 91 1010.4
20260507231037 54 85 0.9 1.7 0.00 0.00 0.00 91 1010.4
20260507225042 55 75 0.9 1.7 0.00 0.00 0.00 90 1010.5
20260507224046 55 48 0.0 1.7 0.00 0.00 0.00 91 1010.6
20260507223110 55 70 1.7 3.5 0.00 0.00 0.00 90 1010.8
20260507222031 55 111 1.7 5.2 0.00 0.00 0.00 90 1010.9
20260507221054 55 106 2.6 3.5 0.00 0.00 0.00 90 1010.9
20260507220137 55 115 1.7 3.5 0.00 0.00 0.00 89 1010.8
20260507215058 56 109 1.7 2.6 0.00 0.00 0.00 89 1010.9
20260507214102 56 97 1.7 2.6 0.00 0.00 0.00 88 1011.0
20260507213022 56 112 1.7 2.6 0.00 0.00 0.00 88 1010.9
20260507212046 56 87 0.9 2.6 0.00 0.00 0.00 87 1010.7
20260507211111 57 82 0.9 1.7 0.00 0.00 0.00 86 1010.8
20260507210029 57 0.0 0.9 0.00 0.00 0.00 85 1010.6
20260507205053 57 0.0 0.0 0.00 0.00 0.00 85 1010.6
20260507204118 58 0.0 0.9 0.00 0.00 0.00 84 1010.5
20260507203037 58 0.0 0.0 0.00 0.00 0.00 83 1010.4
20260507202103 58 0.0 0.9 0.00 0.00 0.00 83 1010.4
20260507201021 58 53 0.9 1.7 0.00 0.00 0.00 83 1010.3
20260507200045 58 66 1.7 2.6 0.00 0.00 0.00 82 1010.2
20260507195110 59 13 0.9 1.7 0.00 0.00 0.00 81 1010.2
20260507194029 59 23 0.9 1.7 0.00 0.00 0.00 81 1010.2
20260507193053 59 24 0.9 1.7 0.00 0.00 0.00 80 1010.2
20260507192137 59 79 0.0 0.9 0.00 0.00 0.00 79 1010.3
20260507191057 59 30 0.9 1.7 0.00 0.00 0.00 79 1010.2
20260507190122 60 84 0.9 2.6 0.00 0.00 0.00 80 1010.2
20260507185042 60 16 0.9 1.7 0.00 0.00 0.00 80 1010.1
20260507184048 60 298 2.6 3.5 0.00 0.00 0.00 78 1010.1
20260507183110 61 38 1.7 3.5 0.00 0.00 0.00 76 1010.0
20260507182030 61 25 0.0 1.7 0.00 0.00 0.00 76 1010.2
20260507181054 61 37 0.9 2.6 0.00 0.00 0.00 75 1010.2
20260507180119 62 37 1.7 2.6 0.00 0.00 0.00 73 1010.0
20260507175038 61 16 0.9 2.6 0.00 0.00 0.00 74 1010.0
20260507174122 61 15 1.7 3.5 0.00 0.00 0.00 74 1010.0
20260507173022 61 357 1.7 5.2 0.00 0.00 0.00 75 1009.9
20260507172046 61 325 3.5 7.8 0.00 0.00 0.00 74 1009.8
20260507171111 62 22 1.7 5.2 0.00 0.00 0.00 74 1009.8
20260507170029 63 13 0.9 2.6 0.00 0.00 0.00 73 1010.1
20260507165115 63 33 1.7 3.5 0.00 0.00 0.00 72 1010.0
20260507164117 64 37 1.7 3.5 0.00 0.00 0.00 72 1010.3
20260507163038 64 31 0.9 3.5 0.00 0.00 0.00 70 1010.4
20260507162122 65 25 1.7 5.2 0.00 0.00 0.00 68 1010.4
20260507161021 63 29 1.7 3.5 0.00 0.00 0.00 68 1010.4
20260507160046 63 9 2.6 5.2 0.00 0.00 0.00 67 1010.5
20260507155109 64 354 1.7 3.5 0.00 0.00 0.00 63 1010.3
20260507154029 64 347 2.6 6.1 0.00 0.00 0.00 63 1010.4
20260507153134 63 344 3.5 7.0 0.00 0.00 0.00 63 1010.3
20260507152118 63 319 3.5 7.0 0.00 0.00 0.00 65 1010.3
20260507151059 63 356 2.6 8.7 0.00 0.00 0.00 67 1010.4
20260507145022 62 351 2.6 5.2 0.00 0.00 0.00 74 1010.6
20260507144046 62 358 2.6 6.1 0.00 0.00 0.00 75 1010.8
20260507143110 61 22 1.7 3.5 0.00 0.00 0.00 75 1011.3
20260507142030 61 27 0.9 3.5 0.00 0.00 0.00 73 1011.3
20260507141054 62 12 3.5 6.1 0.00 0.00 0.00 70 1011.2
20260507140118 62 15 2.6 5.2 0.00 0.00 0.00 72 1011.1
20260507135037 63 26 3.5 7.0 0.00 0.00 0.00 74 1011.2
20260507134102 64 85 4.3 8.7 0.00 0.00 0.00 72 1011.0
20260507133021 63 351 4.3 8.7 0.00 0.00 0.00 73 1011.1
20260507132106 62 23 3.5 8.7 0.00 0.00 0.00 75 1010.9
20260507131109 61 341 3.5 9.6 0.00 0.00 0.00 77 1011.0
20260507130049 61 349 3.5 9.6 0.00 0.00 0.00 76 1011.0
20260507125054 61 359 4.3 8.7 0.00 0.00 0.00 76 1011.1
20260507124117 62 358 4.3 9.6 0.00 0.00 0.00 74 1011.4
20260507123038 62 10 3.5 12.2 0.00 0.00 0.00 74 1011.5